This is the latest recevied weather packets stored in our database for station/object OE9FWV. If no packets are shown the sender has not sent any weather packets the latest 10 day(s).
| Time | Temp. | Humidity | Pressure | Rain* | Wind** | Luminosity | Snow |
|---|---|---|---|---|---|---|---|
| 1777527936 | 6.67° C | 88% | 1022.4 hPa | 0 mm | - | - | - |
| 1777527336 | 6.11° C | 89% | 1022.4 hPa | 0 mm | - | - | - |
| 1777526727 | 6.11° C | 90% | 1022.3 hPa | 0 mm | - | - | - |
| 1777525518 | 5.56° C | 90% | 1021.9 hPa | 0 mm | - | - | - |
| 1777524915 | 5.56° C | 89% | 1022.1 hPa | 0 mm | - | - | - |
| 1777524315 | 5.56° C | 89% | 1022 hPa | 0 mm | - | - | - |
| 1777522510 | 5.56° C | 89% | 1021.9 hPa | 0 mm | - | - | - |
| 1777521304 | 5.56° C | 88% | 1021.5 hPa | 0 mm | - | - | - |
| 1777520702 | 5.56° C | 88% | 1021.5 hPa | 0 mm | - | - | - |
| 1777519496 | 6.11° C | 87% | 1021.6 hPa | 0 mm | - | - | - |
| 1777518892 | 6.11° C | 87% | 1021.5 hPa | 0 mm | - | - | - |
| 1777518290 | 6.11° C | 87% | 1021.3 hPa | 0 mm | - | - | - |
| 1777517688 | 6.11° C | 87% | 1021.2 hPa | 0 mm | - | - | - |
| 1777517086 | 6.67° C | 87% | 1021.2 hPa | 0 mm | - | - | - |
| 1777516486 | 6.67° C | 87% | 1021.2 hPa | 0 mm | - | - | - |
| 1777515881 | 6.67° C | 87% | 1021.2 hPa | 0 mm | - | - | - |
| 1777515275 | 7.22° C | 86% | 1021.2 hPa | 0 mm | - | - | - |
| 1777514669 | 7.22° C | 86% | 1021.3 hPa | 0 mm | - | - | - |
| 1777514069 | 7.22° C | 86% | 1021.3 hPa | 0 mm | - | - | - |
| 1777512257 | 7.78° C | 84% | 1021.1 hPa | 0 mm | - | - | - |
| 1777511653 | 7.78° C | 84% | 1021.1 hPa | 0 mm | - | - | - |
| 1777511052 | 7.78° C | 83% | 1020.9 hPa | 0 mm | - | - | - |
| 1777510452 | 7.78° C | 83% | 1020.8 hPa | 0 mm | - | - | - |
| 1777509846 | 8.33° C | 82% | 1020.7 hPa | 0 mm | - | - | - |
| 1777509241 | 8.33° C | 82% | 1020.7 hPa | 0 mm | - | - | - |
* Rain latest hour (hover to see other rain measurements)
** Current wind speed in m/s (hover to see current wind gust speed)